Mason City, IA

4:43 PM CDT on September 24, 2017 (GMT -0500)
Mason City Municipal

Weather History for KMCW - March, 2014

Change the Weather History Date:

Saturday, March 8, 2014

  Actual Average Record
Temperature  
Mean Temperature 16 °F 29 °F  
Max Temperature 26 °F 38 °F 72 °F (2000)
Min Temperature 6 °F 21 °F -9 °F (1984)
Degree Days  
Heating Degree Days 49 36  
Month to date heating degree days 441 298  
Since 1 July heating degree days 6987 6149  
Cooling Degree Days 0 0  
Month to date cooling degree days 0 0  
Year to date cooling degree days 0 0  
Moisture  
Dew Point 16 °F    
Average Humidity 83    
Maximum Humidity 92    
Minimum Humidity 74    
Precipitation  
Precipitation 0.00 in 0.05 in 0.81 in (1992)
Month to date precipitation 0.42 0.43  
Year to date precipitation 3.44 2.25  
Snow  
Snow 0.00 in 0.30 in 9.20 in (1999)
Month to date snowfall 5.0 1.9  
Since 1 July snowfall 51.1 34.4  
Snow Depth 20.00 in    
Sea Level Pressure  
Sea Level Pressure 30.28 in    
Wind  
Wind Speed 11 mph (NW)    
Max Wind Speed 18 mph    
Max Gust Speed 21 mph    
Visibility 10 miles    
Events      
T = Trace of Precipitation, MM = Missing Value Source: NWS Daily Summary

Daily Weather History Graph

Daily Weather History Graph

Search for Another Location

Airport or City:

Trip Planner

Search our weather history database for the weather conditions in past years. The results will help you decide how hot, cold, wet, or windy it might be!

Date:

Astronomy

Mar. 08, 2014 Rise Set
Actual Time 6:37 AM CST 6:11 PM CST
Civil Twilight 6:09 AM CST 6:39 PM CST
Nautical Twilight 5:36 AM CST 7:12 PM CST
Astronomical Twilight 5:03 AM CST 7:45 PM CST
Moon 11:09 AM CST (3/8) 1:19 AM CST (3/8)
Length of Visible Light 12h 30m
Length of Day
11h 33m
First Quarter, 52% of the Moon is Illuminated
Mar 8
First Quarter
Mar 16
Full
Mar 23
Last Quarter
Mar 30
New
Apr 7
First Quarter

Hourly Weather History & Observations

Time (CST) Temp. Windchill Dew Point Humidity Pressure Visibility Wind Dir Wind Speed Gust Speed Precip Events Conditions
12:53 AM 25.0 °F 13.1 °F 21.0 °F 85% 30.18 in 10.0 mi North 13.8 mph - N/A   Overcast
1:16 AM 25.0 °F 12.6 °F 21.0 °F 85% 30.15 in 10.0 mi North 15.0 mph - N/A   Overcast
1:53 AM 25.0 °F 12.6 °F 19.9 °F 81% 30.19 in 10.0 mi North 15.0 mph - N/A   Overcast
2:03 AM 25.0 °F 12.6 °F 19.9 °F 81% 30.16 in 10.0 mi North 15.0 mph - N/A   Overcast
2:20 AM 24.1 °F 11.5 °F 19.9 °F 84% 30.17 in 10.0 mi North 15.0 mph - N/A   Overcast
2:53 AM 24.1 °F 11.0 °F 19.0 °F 81% 30.20 in 10.0 mi NNW 16.1 mph - N/A   Overcast
3:53 AM 23.0 °F 10.6 °F 19.0 °F 85% 30.21 in 10.0 mi NNW 13.8 mph - N/A   Overcast
4:49 AM 21.2 °F 8.9 °F 17.6 °F 86% 30.20 in 10.0 mi NNW 12.7 mph - N/A   Overcast
4:53 AM 21.9 °F 9.8 °F 18.0 °F 85% 30.24 in 10.0 mi NNW 12.7 mph - N/A   Overcast
5:53 AM 19.9 °F 6.2 °F 16.0 °F 85% 30.27 in 10.0 mi NNW 15.0 mph - N/A   Overcast
6:53 AM 17.1 °F 3.0 °F 12.9 °F 84% 30.29 in 10.0 mi NNW 13.8 mph - N/A   Mostly Cloudy
7:53 AM 16.0 °F 1.7 °F 12.9 °F 88% 30.30 in 10.0 mi NNW 13.8 mph - N/A   Overcast
8:53 AM 19.0 °F 5.0 °F 14.0 °F 81% 30.32 in 10.0 mi NNW 15.0 mph - N/A   Overcast
9:53 AM 19.9 °F 6.2 °F 15.1 °F 81% 30.33 in 10.0 mi NNW 15.0 mph - N/A   Overcast
10:53 AM 21.9 °F 9.2 °F 17.1 °F 82% 30.35 in 10.0 mi North 13.8 mph - N/A   Clear
11:53 AM 25.0 °F 14.8 °F 19.0 °F 78% 30.34 in 10.0 mi NNW 10.4 mph - N/A   Clear
12:53 PM 25.0 °F 14.8 °F 19.0 °F 78% 30.32 in 10.0 mi NW 10.4 mph - N/A   Clear
1:53 PM 25.0 °F 13.6 °F 19.0 °F 78% 30.32 in 10.0 mi NW 12.7 mph - N/A   Clear
2:53 PM 25.0 °F 14.2 °F 18.0 °F 75% 30.32 in 10.0 mi NW 11.5 mph - N/A   Clear
3:53 PM 24.1 °F 13.7 °F 18.0 °F 77% 30.32 in 10.0 mi NNW 10.4 mph - N/A   Scattered Clouds
4:53 PM 24.1 °F 12.5 °F 17.1 °F 75% 30.33 in 10.0 mi NW 12.7 mph - N/A   Scattered Clouds
5:53 PM 19.9 °F 9.3 °F 15.1 °F 81% 30.33 in 10.0 mi NW 9.2 mph - N/A   Clear
6:53 PM 17.1 °F 8.7 °F 12.9 °F 84% 30.34 in 10.0 mi WNW 5.8 mph - N/A   Clear
7:53 PM 14.0 °F - 10.0 °F 84% 30.33 in 10.0 mi Calm Calm - N/A   Clear
8:53 PM 12.9 °F 5.2 °F 10.9 °F 92% 30.32 in 10.0 mi SSW 4.6 mph - N/A   Clear
9:53 PM 10.9 °F 4.7 °F 9.0 °F 92% 30.33 in 10.0 mi SW 3.5 mph - N/A   Clear
10:53 PM 7.0 °F -3.3 °F 5.0 °F 92% 30.31 in 9.0 mi SSW 5.8 mph - N/A   Clear
11:53 PM 10.9 °F -0.8 °F 8.1 °F 88% 30.28 in 10.0 mi SSW 8.1 mph - N/A   Clear